CW7731 Weather Reports


time (UTC)temp
C
wind
direction
speed
KPH
gust
KPH
rain 1hr
cm
rain 24hr
cm
rain mn
cm
humidity
%
barometer
mb
20260507132109 20 81 0.0 17.7 0.00 0.00 0.00 60 1010.8
20260507131138 20 26 0.0 29.0 0.00 0.00 0.00 64 1010.8
20260507130131 21 15 12.9 24.1 0.00 0.00 0.00 60 1010.6
20260507125108 21 9 0.0 12.9 0.00 0.03 0.00 59 1010.5
20260507124110 22 289 4.8 17.7 0.00 0.05 0.00 55 1010.4
20260507123146 22 209 3.2 25.7 0.00 0.08 0.00 50 1010.3
20260507122134 22 203 4.8 20.9 0.00 0.08 0.00 50 1010.3
20260507121140 21 206 3.2 22.5 0.00 0.08 0.00 53 1010.4
20260507120141 21 216 1.6 20.9 0.00 0.10 0.00 53 1010.3
20260507115143 21 203 6.4 24.1 0.00 0.15 0.00 52 1010.3
20260507114123 21 189 6.4 19.3 0.00 0.20 0.00 54 1010.4
20260507105101 20 192 0.0 17.7 0.00 0.25 0.00 62 1010.8
20260507104120 20 172 1.6 16.1 0.00 0.30 0.00 63 1010.8
20260507103141 20 125 1.6 19.3 0.00 0.30 0.00 64 1011.1
20260507102136 20 165 1.6 8.0 0.00 0.30 0.00 62 1011.1
20260507101145 20 167 0.0 9.7 0.00 0.30 0.00 60 1011.2
20260507100104 20 176 0.0 6.4 0.00 0.30 0.00 61 1011.3
20260507095130 20 187 0.0 1.6 0.00 0.30 0.00 59 1011.4
20260507094108 19 187 0.0 0.0 0.00 0.30 0.00 61 1011.3
20260507093122 19 185 0.0 1.6 0.00 0.30 0.00 62 1011.3
20260507092137 19 175 0.0 1.6 0.00 0.30 0.00 63 1011.2
20260507091129 18 167 0.0 1.6 0.00 0.30 0.00 65 1011.2
20260507085135 18 165 0.0 6.4 0.00 0.30 0.00 66 1011.2
20260507084133 17 167 0.0 3.2 0.00 0.30 0.00 67 1011.2
20260507081112 17 319 0.0 0.0 0.00 0.30 0.00 72 1011.3
20260507080146 17 320 0.0 0.0 0.00 0.30 0.00 73 1011.2
20260507075125 17 320 0.0 0.0 0.00 0.30 0.00 76 1011.2
20260507074123 16 319 0.0 0.0 0.00 0.30 0.00 78 1011.2
20260507073144 16 319 0.0 0.0 0.00 0.30 0.00 80 1011.2
20260507072130 16 319 0.0 0.0 0.00 0.30 0.00 80 1011.2
20260507071138 16 319 0.0 0.0 0.00 0.30 0.00 80 1011.1
20260507070130 16 319 0.0 0.0 0.00 0.30 0.00 81 1011.0
20260507065124 15 319 0.0 0.0 0.00 0.30 0.00 83 1010.9
20260507064117 15 319 0.0 0.0 0.00 0.30 0.00 84 1010.9
20260507063129 15 319 0.0 0.0 0.00 0.30 0.00 84 1010.9
20260507061146 14 319 0.0 0.0 0.00 0.33 0.00 86 1010.8
20260507060105 13 319 0.0 0.0 0.00 0.36 0.00 86 1010.8
20260507055145 13 319 0.0 0.0 0.00 0.51 0.00 87 1010.7
20260507054124 13 319 0.0 0.0 0.00 0.51 0.00 88 1010.7
20260507053129 12 319 0.0 0.0 0.00 0.51 0.00 89 1010.6
20260507052116 12 319 0.0 0.0 0.00 0.51 0.00 90 1010.6
20260507051133 12 319 0.0 0.0 0.00 0.51 0.00 90 1010.4
20260507050135 11 319 0.0 1.6 0.00 0.51 0.00 90 1010.3
20260507043132 11 316 0.0 0.0 0.00 0.51 0.00 90 1010.0
20260507042123 11 316 0.0 0.0 0.00 0.51 0.00 90 1010.0
20260507041144 11 316 0.0 0.0 0.00 0.51 0.00 90 1009.8
20260507040142 11 313 0.0 1.6 0.00 0.51 0.00 90 1009.7
20260507035103 11 315 0.0 0.0 0.00 0.51 0.00 91 1009.5
20260507034143 11 315 0.0 0.0 0.00 0.51 0.00 91 1009.6
20260507033140 11 316 0.0 0.0 0.00 0.51 0.00 91 1009.6
20260507032112 11 317 0.0 1.6 0.00 0.51 0.00 91 1009.6
20260507031137 11 317 0.0 1.6 0.00 0.51 0.00 91 1009.6
20260507030104 11 318 0.0 3.2 0.00 0.51 0.00 91 1009.5
20260507023103 11 349 0.0 1.6 0.00 0.51 0.00 91 1009.5
20260507022136 11 355 0.0 0.0 0.00 0.51 0.00 92 1009.5
20260507021135 11 355 0.0 0.0 0.00 0.51 0.00 92 1009.6
20260507020146 11 355 0.0 1.6 0.00 0.51 0.00 92 1009.7
20260507015142 11 3 0.0 0.0 0.00 0.51 0.00 92 1009.7
20260507014133 11 3 0.0 1.6 0.00 0.51 0.00 92 1009.5
20260507013136 11 3 0.0 0.0 0.00 0.51 0.00 92 1009.5
20260507004137 12 12 0.0 0.0 0.00 0.51 0.00 92 1009.5
20260507002102 12 12 0.0 0.0 0.00 0.51 0.00 91 1009.5
20260507000146 12 12 0.0 0.0 0.00 0.51 0.00 91 1009.5
20260506235137 12 22 0.0 0.0 0.00 0.51 0.00 91 1009.4
20260506234110 12 22 0.0 1.6 0.00 0.51 0.00 91 1009.5
20260506233108 12 22 0.0 0.0 0.00 0.51 0.00 91 1009.5
20260506232145 12 22 0.0 0.0 0.00 0.51 0.00 91 1009.5
20260506230105 13 22 0.0 0.0 0.00 0.51 0.00 91 1009.3
20260506225102 13 22 0.0 0.0 0.00 0.51 0.00 91 1009.4
20260506224104 13 22 0.0 0.0 0.00 0.51 0.00 91 1009.5
20260506223109 13 22 0.0 0.0 0.00 0.51 0.00 90 1009.5
20260506222147 13 22 0.0 0.0 0.00 0.51 0.00 90 1009.5
20260506221102 13 22 0.0 0.0 0.00 0.51 0.00 90 1009.6
20260506220122 13 22 0.0 0.0 0.00 0.51 0.00 90 1009.5
20260506215124 13 22 0.0 0.0 0.00 0.51 0.51 90 1009.4
20260506214137 14 22 0.0 0.0 0.00 0.51 0.51 90 1009.4
20260506213110 13 22 0.0 0.0 0.00 0.51 0.51 89 1009.5
20260506212133 14 22 0.0 0.0 0.00 0.51 0.51 89 1009.5
20260506211119 14 22 0.0 0.0 0.00 0.51 0.51 88 1009.4
20260506210104 15 22 0.0 0.0 0.00 0.51 0.51 88 1009.3
20260506205123 15 22 0.0 0.0 0.00 0.51 0.51 88 1009.3
20260506204102 15 22 0.0 0.0 0.00 0.51 0.51 88 1009.2
20260506203142 15 22 0.0 0.0 0.00 0.51 0.51 88 1009.2
20260506200137 15 23 0.0 0.0 0.00 0.51 0.51 88 1009.0
20260506194101 15 23 0.0 0.0 0.00 0.51 0.51 88 1008.8
20260506192120 15 23 0.0 0.0 0.00 0.51 0.51 88 1008.7
20260506191119 15 18 0.0 0.0 0.00 0.51 0.51 88 1008.6
20260506190108 16 16 0.0 0.0 0.00 0.51 0.51 88 1008.5
20260506183132 16 74 0.0 0.0 0.00 0.51 0.51 88 1008.2
20260506182141 16 74 0.0 0.0 0.00 0.51 0.51 88 1008.1
20260506181113 16 74 0.0 1.6 0.00 0.51 0.51 88 1008.0
20260506175143 16 76 0.0 8.0 0.00 0.51 0.51 87 1007.9
20260506174127 16 115 0.0 0.0 0.00 0.51 0.51 87 1007.8
20260506173131 16 115 0.0 0.0 0.00 0.51 0.51 87 1007.8
20260506172137 16 115 0.0 0.0 0.00 0.51 0.51 87 1007.6
20260506171116 16 115 0.0 6.4 0.00 0.51 0.51 86 1007.6
20260506170133 16 86 0.0 1.6 0.00 0.51 0.51 86 1007.6
20260506165104 16 91 0.0 0.0 0.00 0.51 0.51 85 1007.5
20260506163107 17 74 0.0 0.0 0.00 0.51 0.51 85 1007.5
20260506162113 16 58 0.0 3.2 0.00 0.51 0.51 86 1007.2
20260506160119 16 89 0.0 4.8 0.00 0.51 0.51 86 1007.5
20260506155115 16 91 0.0 1.6 0.00 0.51 0.51 86 1007.4
20260506154133 16 102 0.0 1.6 0.00 0.51 0.51 87 1007.4
20260506153109 16 74 0.0 0.0 0.00 0.51 0.51 87 1007.6
20260506152101 16 77 0.0 1.6 0.00 0.51 0.51 87 1007.3
20260506151121 16 59 0.0 6.4 0.00 0.51 0.51 87 1007.5
20260506150124 16 98 0.0 1.6 0.00 0.51 0.51 89 1007.5
20260506145103 16 89 0.0 4.8 0.00 0.51 0.51 89 1007.8
20260506144112 16 89 0.0 1.6 0.00 0.51 0.51 89 1007.7
20260506143102 16 87 0.0 9.7 0.00 0.53 0.51 89 1007.7
20260506142140 16 76 0.0 6.4 0.00 0.53 0.51 90 1007.8
20260506141119 15 82 0.0 6.4 0.00 0.58 0.51 91 1007.8
20260506140113 15 13 0.0 1.6 0.00 0.58 0.51 91 1008.0
20260506135145 15 77 0.0 6.4 0.03 0.58 0.51 91 1008.2
20260506134136 15 86 0.0 1.6 0.05 0.58 0.51 91 1008.2
20260506133140 15 98 0.0 6.4 0.08 0.58 0.51 91 1008.2